STARLINK-32241, 60437

Orbit data source: Space-Track

STARLINK-32241, 60437 is a payload satellite owned by SpaceX/Seattle (US) in LEO that was launched on Mon, 12 Aug 2024 UTC via an FALCON 9 launch vehicle from the Air Force Eastern Test Range (AFETR). Payload-class satellites include a variety of spacecraft equipped with specific instruments for various scientific and technological missions. These include communications satellites like Starlink; space stations such as the ISS; scientific satellites like the Hubble; Earth observation satellites from companies like Planet Labs, Umbra, and HawkEye 360; GPS; miniature CubeSats for education and research; and military/defense satellites.

Loading next visibility...
Identifier
60437, 2024-144N
Orbit
LEO
Country
Flag of USUS
Related business
Manufacturer
SpaceX/Seattle
Mission
Operational Commercial Communications
Bus & Motor
STARLINK V2M, Unknown motor
Mass
730 kg wet, ~700 kg dry
Launch date (UTC)
2024-08-12 (2 years ago)
Launch vehicle
FALCON 9
Launch site
Air Force Eastern Test Range (AFETR)
Object type
Payload
Rocket body
Debris
Shape & HBR
Box + 2 Pan, 17.7 m
Radar Cross Section
33.884 m², Large (>1 m²)

Expand to show TLE details & history
Last TLE update: 2 days ago

TLE from 2 days ago
0 STARLINK-32241
1 60437U 24144N   26170.08558634 -.00000617  00000-0 -71314-5 0  9997
2 60437  53.1605 104.7191 0001475  98.6612 261.4557 15.34386290104853
Epoch: 2026-06-19T02:03Z
TLE epoch observation values (Epoch: 2026-06-19T02:03:14.659Z)
Latitude
-0.0001°
Longitude
166.58833°
Altitude
463.795 km
Speed
7.636 km/s
True Right ascension
06h 58m 52s
True Declination
0° 00' 00"
Sunlit
Object was in daylight at epoch
Visualization orbit readout
Latitude
Unknown
Longitude
Unknown
Altitude
Unknown
Speed
Unknown
Apparent Right ascension
Unknown
Apparent Declination
Unknown
Sunlit
N/A
Visualization observer readout
Local Sidereal Time
07:12:20
Azimuth
Unknown
Elevation
Unknown
Doppler factor
Unknown
Orbital elements
Apogee altitude
464.01 km
Perigee altitude
461.992 km
Semi-major axis
6,841.138 km
Eccentricity
0.00015
Inclination
53.1605°
RAAN
104.7191°
Arg. of periapsis
98.6612°
True anomaly
261.43899°
Mean anomaly
261.4557°
Eccentric anomaly
261.44734°
Mean motion
3.83575 °/min
Orbital period
93.85 mins
BSTAR
-0.0000071314
Loading maneuver chart data...
Computing Atmospheric mass density...
Loading historical data...
Loading historical data...
Loading historical data...
Loading historical data...
Loading historical data...
Loading historical data...
Loading historical data...

Documentation

Showing up to 5 results
|